DW5656 Weather Reports


time (UTC)temp
C
wind
direction
speed
KPH
gust
KPH
rain 1hr
cm
rain 24hr
cm
rain mn
cm
humidity
%
barometer
mb
20260902234516 30 350 1.6 3.2 0.00 0.00 0.00 57 1017.8
20260902233616 30 350 1.6 3.2 0.00 0.00 0.00 57 1017.9
20260902232716 30 350 1.6 3.2 0.00 0.00 0.00 56 1017.9
20260902231837 30 345 3.2 6.4 0.00 0.00 0.00 55 1017.8
20260902230916 31 325 1.6 6.4 0.00 0.00 0.00 55 1017.8
20260902230016 31 311 0.0 3.2 0.00 0.00 0.00 57 1017.9
20260902225116 31 0 0.0 0.0 0.00 0.00 0.00 57 1017.8
20260902224237 31 311 1.6 3.2 0.00 0.00 0.00 56 1017.9
20260902223316 31 309 1.6 6.4 0.00 0.00 0.00 56 1017.8
20260902222416 31 307 1.6 6.4 0.00 0.00 0.00 56 1017.9
20260902221516 31 292 3.2 6.4 0.00 0.00 0.00 56 1017.9
20260902220615 31 288 3.2 6.4 0.00 0.00 0.00 56 1017.8
20260902215716 31 294 1.6 6.4 0.00 0.00 0.00 56 1017.7
20260902214816 31 283 1.6 4.8 0.00 0.00 0.00 56 1017.8
20260902213916 31 277 3.2 4.8 0.00 0.00 0.00 56 1017.7
20260902213015 31 277 3.2 6.4 0.00 0.00 0.00 56 1017.7
20260902212136 31 275 3.2 6.4 0.00 0.00 0.00 56 1017.6
20260902211215 31 271 3.2 9.7 0.00 0.00 0.00 56 1017.7
20260902210315 31 274 3.2 6.4 0.00 0.00 0.00 56 1017.6
20260902205415 31 284 3.2 9.7 0.00 0.00 0.00 56 1017.5
20260902204515 31 258 4.8 11.3 0.00 0.00 0.00 56 1017.4
20260902203615 31 246 6.4 11.3 0.00 0.00 0.00 55 1017.4
20260902202715 31 243 6.4 12.9 0.00 0.00 0.00 55 1017.4
20260902201815 31 249 8.0 19.3 0.00 0.00 0.00 55 1017.3
20260902200936 31 237 6.4 19.3 0.00 0.00 0.00 55 1017.2
20260902200015 32 220 6.4 12.9 0.00 0.00 0.00 55 1017.1
20260902195115 32 224 4.8 11.3 0.00 0.00 0.00 54 1016.7
20260902194215 32 234 4.8 9.7 0.00 0.00 0.00 53 1016.5
20260902193315 32 229 4.8 11.3 0.00 0.00 0.00 53 1016.4
20260902192415 33 231 6.4 11.3 0.00 0.00 0.00 53 1016.3
20260902191515 33 233 6.4 14.5 0.00 0.00 0.00 52 1016.2
20260902190636 33 231 6.4 14.5 0.00 0.00 0.00 51 1016.2
20260902185715 33 232 6.4 12.9 0.00 0.00 0.00 51 1016.1
20260902184815 34 229 9.7 16.1 0.00 0.00 0.00 50 1016.2
20260902183915 35 238 8.0 19.3 0.00 0.00 0.00 49 1016.0
20260902183015 35 230 8.0 19.3 0.00 0.00 0.00 47 1016.0
20260902182115 36 228 6.4 20.9 0.00 0.00 0.00 43 1016.1
20260902181215 36 222 6.4 14.5 0.00 0.00 0.00 41 1016.0
20260902180315 37 218 6.4 14.5 0.00 0.00 0.00 41 1016.0
20260902175415 37 215 6.4 14.5 0.00 0.00 0.00 41 1016.0
20260902174536 37 220 6.4 14.5 0.00 0.00 0.00 40 1016.0
20260902173615 38 231 6.4 14.5 0.00 0.00 0.00 38 1015.9
20260902172715 38 251 6.4 14.5 0.00 0.00 0.00 37 1015.8
20260902171836 38 252 4.8 14.5 0.00 0.00 0.00 35 1015.9
20260902170915 38 239 6.4 11.3 0.00 0.00 0.00 34 1015.9
20260902170036 38 244 8.0 16.1 0.00 0.00 0.00 34 1016.0
20260902165115 38 241 8.0 16.1 0.00 0.00 0.00 34 1015.9
20260902164215 38 243 8.0 17.7 0.00 0.00 0.00 32 1016.1
20260902163315 38 230 8.0 17.7 0.00 0.00 0.00 31 1016.0
20260902162415 38 257 9.7 17.7 0.00 0.00 0.00 33 1015.9
20260902161514 38 240 8.0 19.3 0.00 0.00 0.00 32 1015.8
20260902160616 39 237 4.8 17.7 0.00 0.00 0.00 32 1015.9
20260902155714 39 252 4.8 11.3 0.00 0.00 0.00 33 1015.9
20260902154815 38 224 4.8 11.3 0.00 0.00 0.00 33 1015.8
20260902153914 38 237 4.8 17.7 0.00 0.00 0.00 34 1015.9
20260902153014 38 225 4.8 11.3 0.00 0.00 0.00 33 1015.9
20260902152114 38 241 4.8 11.3 0.00 0.00 0.00 34 1015.9
20260902151214 38 177 4.8 9.7 0.00 0.00 0.00 35 1016.1
20260902150314 38 253 3.2 8.0 0.00 0.00 0.00 35 1016.1
20260902145414 38 264 3.2 9.7 0.00 0.00 0.00 36 1016.1
20260902144535 38 260 4.8 9.7 0.00 0.00 0.00 37 1016.3
20260902143614 38 198 4.8 9.7 0.00 0.00 0.00 36 1016.4
20260902142714 37 270 4.8 11.3 0.00 0.00 0.00 37 1016.4
20260902141814 37 285 3.2 8.0 0.00 0.00 0.00 37 1016.4
20260902140914 37 285 3.2 9.7 0.00 0.00 0.00 37 1016.4
20260902140014 38 199 3.2 8.0 0.00 0.00 0.00 39 1016.5
20260902135114 37 54 3.2 8.0 0.00 0.00 0.00 39 1016.7
20260902134214 37 192 1.6 8.0 0.00 0.00 0.00 40 1016.8
20260902133314 37 226 1.6 8.0 0.00 0.00 0.00 40 1016.7
20260902132414 37 13 1.6 4.8 0.00 0.00 0.00 42 1016.9
20260902131514 36 327 3.2 6.4 0.00 0.00 0.00 43 1017.0
20260902130614 35 338 3.2 8.0 0.00 0.00 0.00 44 1016.9
20260902125735 35 44 3.2 9.7 0.00 0.00 0.00 44 1017.0
20260902124814 35 28 3.2 9.7 0.00 0.00 0.00 45 1017.2
20260902123915 35 84 3.2 8.0 0.00 0.00 0.00 44 1017.2
20260902123014 35 41 4.8 11.3 0.00 0.00 0.00 47 1017.3
20260902122115 34 92 6.4 16.1 0.00 0.00 0.00 47 1017.4
20260902121214 33 46 6.4 16.1 0.00 0.00 0.00 48 1017.4
20260902120314 33 76 8.0 16.1 0.00 0.00 0.00 49 1017.4
20260902115414 33 78 6.4 16.1 0.00 0.00 0.00 49 1017.6
20260902114514 33 52 6.4 16.1 0.00 0.00 0.00 51 1017.6
20260902113614 33 72 8.0 16.1 0.00 0.00 0.00 51 1017.7
20260902112714 32 42 6.4 17.7 0.00 0.00 0.00 52 1017.8
20260902111814 32 69 9.7 17.7 0.00 0.00 0.00 52 1017.9
20260902110914 32 73 9.7 17.7 0.00 0.00 0.00 52 1018.0
20260902110014 32 66 8.0 19.3 0.00 0.00 0.00 53 1017.9
20260902105114 31 65 8.0 17.7 0.00 0.00 0.00 54 1018.1
20260902104213 31 74 6.4 20.9 0.00 0.00 0.00 55 1018.3
20260902103314 31 70 6.4 17.7 0.00 0.00 0.00 56 1018.5
20260902102414 30 85 9.7 16.1 0.00 0.00 0.00 57 1018.4
20260902101513 30 66 8.0 16.1 0.00 0.00 0.00 58 1018.5
20260902100613 30 56 8.0 16.1 0.00 0.00 0.00 57 1018.5
20260902095713 29 67 6.4 19.3 0.00 0.00 0.00 56 1018.5
20260902094813 29 43 4.8 14.5 0.00 0.00 0.00 55 1018.5
20260902093913 28 66 6.4 9.7 0.00 0.00 0.00 53 1018.5
20260902093013 27 24 8.0 14.5 0.00 0.00 0.00 53 1018.5
20260902092113 27 15 6.4 12.9 0.00 0.00 0.00 51 1018.4
20260902091213 27 34 6.4 11.3 0.00 0.00 0.00 52 1018.4
20260902090334 26 37 6.4 14.5 0.00 0.00 0.00 52 1018.4
20260902085413 26 43 6.4 16.1 0.00 0.00 0.00 53 1018.3
20260902084513 26 38 4.8 11.3 0.00 0.00 0.00 54 1018.3
20260902083613 26 42 4.8 9.7 0.00 0.00 0.00 55 1018.5
20260902082734 25 40 8.0 14.5 0.00 0.00 0.00 55 1018.4
20260902081813 25 54 8.0 14.5 0.00 0.00 0.00 56 1018.3
20260902080913 25 49 6.4 14.5 0.00 0.00 0.00 57 1018.4
20260902080013 25 47 6.4 14.5 0.00 0.00 0.00 58 1018.4
20260902075113 24 27 6.4 14.5 0.00 0.00 0.00 59 1018.4
20260902074234 24 39 8.0 14.5 0.00 0.00 0.00 61 1018.3
20260902073313 23 40 6.4 12.9 0.00 0.00 0.00 61 1018.1
20260902072435 23 30 6.4 11.3 0.00 0.00 0.00 62 1018.1
20260902071513 23 44 8.0 16.1 0.00 0.00 0.00 63 1018.0
20260902070613 23 44 6.4 14.5 0.00 0.00 0.00 63 1018.1
20260902065734 23 50 4.8 12.9 0.00 0.00 0.00 63 1018.1
20260902064813 23 34 6.4 12.9 0.00 0.00 0.00 65 1018.1
20260902063934 22 40 8.0 16.1 0.00 0.00 0.00 66 1018.1
20260902063034 22 29 6.4 16.1 0.00 0.00 0.00 67 1018.0
20260902062113 22 12 6.4 12.9 0.00 0.00 0.00 67 1018.0
20260902061213 23 354 6.4 12.9 0.00 0.00 0.00 67 1018.0
20260902060313 23 32 4.8 9.7 0.00 0.00 0.00 67 1017.9
20260902055413 23 14 1.6 6.4 0.00 0.00 0.00 68 1017.9
20260902054513 23 29 1.6 4.8 0.00 0.00 0.00 68 1017.9
20260902053613 23 32 0.0 3.2 0.00 0.00 0.00 68 1017.8
20260902052713 23 31 0.0 1.6 0.00 0.00 0.00 68 1018.0
20260902051813 23 31 3.2 4.8 0.00 0.00 0.00 68 1017.9
20260902050913 23 31 3.2 4.8 0.00 0.00 0.00 68 1017.9
20260902050013 23 29 3.2 6.4 0.00 0.00 0.00 68 1017.8
20260902045113 23 59 3.2 8.0 0.00 0.00 0.00 68 1017.8
20260902044213 23 50 4.8 8.0 0.00 0.00 0.00 68 1017.6
20260902043313 23 6 4.8 8.0 0.00 0.00 0.00 67 1017.6
20260902042413 23 17 3.2 8.0 0.00 0.00 0.00 69 1017.7
20260902041512 23 11 0.0 9.7 0.00 0.00 0.00 72 1017.5
20260902040634 23 216 0.0 1.6 0.00 0.00 0.00 73 1017.6
20260902035712 23 216 1.6 3.2 0.00 0.00 0.00 73 1017.5
20260902034812 23 216 1.6 3.2 0.00 0.00 0.00 73 1017.3
20260902033914 23 216 1.6 4.8 0.00 0.00 0.00 73 1017.2
20260902033012 23 216 1.6 3.2 0.00 0.00 0.00 73 1017.2
20260902032133 23 216 1.6 3.2 0.00 0.00 0.00 73 1017.2
20260902031212 23 223 3.2 8.0 0.00 0.00 0.00 74 1017.4
20260902030313 23 261 1.6 4.8 0.00 0.00 0.00 73 1017.5
20260902025412 23 261 1.6 3.2 0.00 0.00 0.00 73 1017.4
20260902024512 23 261 1.6 3.2 0.00 0.00 0.00 73 1017.5
20260902023633 23 261 3.2 6.4 0.00 0.00 0.00 73 1017.8
20260902022713 23 256 3.2 6.4 0.00 0.00 0.00 73 1017.8
20260902021812 23 258 3.2 6.4 0.00 0.00 0.00 73 1017.7
20260902020912 23 254 1.6 4.8 0.00 0.00 0.00 73 1017.9
20260902020012 23 231 3.2 4.8 0.00 0.00 0.00 72 1017.9
20260902015112 23 227 1.6 6.4 0.00 0.00 0.00 72 1017.8
20260902014212 23 257 1.6 4.8 0.00 0.00 0.00 70 1017.6
20260902013312 23 257 1.6 4.8 0.00 0.00 0.00 69 1017.5
20260902012412 23 245 3.2 8.0 0.00 0.00 0.00 68 1017.6
20260902011512 23 214 3.2 8.0 0.00 0.00 0.00 67 1017.7
20260902010612 23 219 4.8 9.7 0.00 0.00 0.00 67 1017.9
20260902005712 23 225 3.2 12.9 0.00 0.00 0.00 65 1018.0
20260902004812 24 233 3.2 8.0 0.00 0.00 0.00 64 1018.1
20260902003912 24 216 4.8 9.7 0.00 0.00 0.00 63 1018.2
20260902003012 24 219 4.8 11.3 0.00 0.00 0.00 63 1018.0
20260902002112 24 225 4.8 8.0 0.00 0.00 0.00 62 1018.0
20260902001212 24 211 3.2 11.3 0.00 0.00 0.00 61 1018.1
20260902000312 24 214 4.8 8.0 0.00 0.00 0.00 61 1017.9
20260901235412 24 219 4.8 8.0 0.00 0.00 0.00 61 1017.9